[[{"header":{"parameterUnit":"m.s-1","parameterCategory":1,"la1":30.2991,"la2":30.254,"lo1":-89.0895,"lo2":-89.0444,"dy":0.0017,"dx":0.0017,"nx":28,"ny":28,"refTime":"2024-02-28T03:00:00:Z","depth":0,"parameterNumber":2,"parameterNumberName":"U-component_of_WINDS"},"data":[0,0,0,0,0,0,0,0,0,0,0,0,0,0,0,0,0,0,0,0,0,0,0,0,0,0,0,0,0,0,0,0,0,0,0,0,0,0,0,0,0,0,0,0,0,0,0,0,0,0,0,0,0,0,0,0,0,0,1.9674,1.9675,0,1.9689,1.969,1.969,1.9661,1.966,1.9659,1.9658,1.9675,1.9676,1.9678,0,0,0,0,0,0,0,0,0,0,0,0,0,1.9623,1.9624,1.9674,1.9675,1.9675,1.9689,1.969,1.969,1.9661,1.966,1.9659,1.9658,1.9675,1.9676,1.9678,0,0,0,0,0,0,0,0,0,0,0,0,0,1.9642,1.9624,1.9674,1.9662,1.9661,1.9689,1.969,1.969,1.9661,1.966,1.9659,1.9657,1.9674,1.9676,1.9678,1.9719,0,0,1.9684,1.9685,0,0,0,0,0,0,0,0,1.9641,1.9644,1.9664,1.9663,1.9662,1.9672,1.9678,1.97,1.9662,1.9661,1.9658,1.9657,1.9675,1.9677,1.9683,1.972,1.9721,1.9684,1.9686,1.9686,1.9687,0,0,0,0,0,0,0,1.964,1.9643,1.968,1.9664,1.9663,1.9657,1.9658,1.9682,1.9676,1.9661,1.9659,1.9661,1.9675,1.9681,1.9683,1.9721,1.9684,1.9686,1.9687,1.9688,1.9794,1.9795,0,0,0,0,0,0,1.964,1.9643,1.968,1.9681,1.9648,1.9659,1.966,1.967,1.9676,1.9675,1.9663,1.966,1.9678,1.9681,1.9684,1.9734,1.9686,1.9688,1.9689,1.9792,1.9794,1.9796,0,0,0,0,0,0,1.9639,1.9643,1.9679,1.9661,1.9665,1.9661,1.9673,1.9671,1.9678,1.9677,1.9676,1.967,1.9677,1.9681,1.9711,1.9734,1.9689,1.9691,1.979,1.9793,1.9795,1.9833,0,0,0,0,0,0,1.9638,1.9643,1.9658,1.9662,1.9666,1.9706,1.9674,1.9673,1.9681,1.9678,1.9684,1.9683,1.9677,1.9708,1.9713,1.9736,1.9693,1.9788,1.9792,1.9794,1.983,1.9837,1.9842,0,0,0,0,0,1.9636,1.9668,1.9659,1.9664,1.9685,1.9707,1.971,1.9701,1.9683,1.9699,1.9698,1.9683,1.973,1.9711,1.9716,1.974,1.9787,1.9791,1.9794,1.9827,1.9835,1.9842,0,0,0,0,0,0,1.9668,1.9668,1.9658,1.9693,1.97,1.9702,1.9721,1.9709,1.9722,1.9719,1.9707,1.9709,1.9742,1.9744,1.9723,1.9781,1.9756,1.9761,1.9779,1.9787,1.9793,1.9792,1.9694,0,0,0,0,0,1.9679,1.9696,1.9696,1.9726,1.973,1.9725,1.9735,1.9727,1.9734,1.9737,1.9739,1.9747,1.9764,1.9775,1.979,1.983,1.9831,1.9849,1.9855,1.986,1.9865,1.9888,1.9896,1.9808,1.9808,1.9808,0,0,1.9702,1.9704,1.9716,1.9733,1.9738,1.9757,1.9728,1.9749,1.9764,1.9741,1.977,1.9771,1.9779,1.9815,1.983,1.9818,1.9889,1.9865,1.9869,1.9871,1.9892,1.9901,1.9908,1.981,1.981,1.981,0,0,1.9754,1.9757,1.9783,1.9789,1.9797,1.9793,1.98,1.9804,1.9804,1.9832,1.9816,1.9833,1.9862,1.9869,1.9876,1.9933,1.992,1.9938,1.9971,1.9993,2.0,2.0006,2.0028,2.0036,1.9942,1.9942,1.9942,0,1.9782,1.981,1.9799,1.9822,1.983,1.981,1.9838,1.9844,1.9856,1.9863,1.9848,1.9885,1.9888,1.9926,1.994,1.9946,1.9954,1.9938,2.0,2.0006,2.0012,2.0033,2.0041,1.9945,1.9944,1.9944,1.9944,0,1.9845,1.9864,1.9885,1.9898,1.9908,1.9933,1.9927,1.994,1.9931,1.993,1.996,1.9964,1.9981,1.9989,1.9981,2.0026,2.0018,2.0002,1.9976,2.0023,2.0042,2.005,1.9948,1.9947,1.9946,1.9946,0,0,1.9918,1.9925,1.9933,1.9939,1.9946,1.9962,1.9986,2.0002,2.0014,2.0023,2.0045,2.007,2.0055,2.0064,2.0056,2.0076,2.0123,2.0058,2.0058,2.0071,2.0175,2.0188,2.0198,2.0114,2.0115,2.0116,2.0175,0,1.9971,2.0013,2.0005,2.0047,2.0066,2.0047,2.0069,2.0077,2.0076,2.0093,2.0092,2.0111,2.0089,2.0094,2.0113,2.0113,2.0144,2.0108,2.0135,2.0136,2.0135,2.0207,2.0221,2.0277,2.0182,2.0183,2.0184,0,2.0039,2.0051,2.0095,2.0101,2.0109,2.0129,2.0144,2.0159,2.0168,2.0166,2.0176,2.0165,2.0191,2.0164,2.02,2.0176,2.0187,2.0189,2.019,2.0194,2.0164,2.0215,2.0294,2.0303,2.0196,2.0195,2.0194,0,2.009,2.0118,2.0148,2.0154,2.0161,2.0176,2.0179,2.0186,2.0197,2.021,2.0217,2.0233,2.0242,2.0255,2.0249,2.023,2.0287,2.0259,2.0288,2.0288,2.0302,2.0302,2.0386,2.0306,2.0306,2.0306,2.0305,0,2.0152,2.018,2.0172,2.0191,2.0222,2.0212,2.0244,2.0245,2.0252,2.0272,2.0256,2.0275,2.0265,2.0284,2.0279,2.0311,2.0315,2.0315,2.0314,2.0318,2.0318,2.0326,2.0322,2.0308,2.0307,2.0307,2.0306,0,2.0215,2.021,2.0243,2.0247,2.0249,2.0272,2.0276,2.0294,2.0293,2.0318,2.0323,2.0321,2.0342,2.0337,2.036,2.0357,2.0398,2.039,2.0395,2.0394,2.0424,2.0422,2.0517,2.053,2.044,2.0441,2.0441,0,2.0255,2.0277,2.0284,2.0296,2.0301,2.032,2.0331,2.0322,2.0335,2.0347,2.0364,2.0384,2.0399,2.0434,2.0435,2.0452,2.0447,2.0479,2.045,2.0453,2.045,2.045,2.0453,2.0486,2.0487,2.0488,2.0488,0,2.0328,2.0325,2.0342,2.0358,2.0372,2.0384,2.0395,2.0406,2.0398,2.0413,2.0434,2.0446,2.047,2.0491,2.0507,2.0512,2.05,2.0497,2.0505,2.051,2.0513,2.0514,2.0413,2.0496,2.0495,2.0494,2.0494,2.0494,2.0383,2.0402,2.041,2.0429,2.0437,2.0448,2.0466,2.0466,2.0484,2.0503,2.0496,2.0522,2.0531,2.0552,2.0558,2.0578,2.0566,2.0577,2.0581,2.0584,2.0589,2.0508,2.0581,2.0581,2.0581,2.058,2.058,0,2.0456,2.0461,2.0479,2.0495,2.0511,2.0497,2.0509,2.0523,2.0545,2.0555,2.0571,2.0596,2.0616,2.0619,2.0638,2.0653,2.0648,2.0659,2.0659,2.066,2.0597,2.0589,2.0663,2.0663,2.0663,2.0663,2.0663,2.0663,2.0497,2.0529,2.0527,2.0563,2.0567,2.0592,2.06,2.0611,2.0618,2.0648,2.0664,2.0666,2.0673,2.0692,2.0711,2.0711,2.0719,2.0733,2.0731,2.0673,2.0664,2.0657,2.0649,2.0734,2.0734,2.0793,2.0793,2.0794]},{"header":{"parameterUnit":"m.s-1","parameterCategory":1,"la1":30.2991,"la2":30.254,"lo1":-89.0895,"lo2":-89.0444,"dy":0.0017,"dx":0.0017,"nx":28,"ny":28,"refTime":"2024-02-28T03:00:00:Z","depth":0,"parameterNumber":3,"parameterNumberName":"V-component_of_WINDS"},"data":[0,0,0,0,0,0,0,0,0,0,0,0,0,0,0,0,0,0,0,0,0,0,0,0,0,0,0,0,0,0,0,0,0,0,0,0,0,0,0,0,0,0,0,0,0,0,0,0,0,0,0,0,0,0,0,0,0,0,4.0862,4.0862,0,4.0825,4.0824,4.0824,4.0803,4.0803,4.0803,4.0803,4.0761,4.076,4.0759,0,0,0,0,0,0,0,0,0,0,0,0,0,4.0913,4.0912,4.0862,4.0862,4.0861,4.0825,4.0824,4.0824,4.0803,4.0803,4.0803,4.0803,4.0761,4.076,4.0759,0,0,0,0,0,0,0,0,0,0,0,0,0,4.0884,4.0912,4.0862,4.0846,4.0845,4.0825,4.0824,4.0824,4.0803,4.0803,4.0803,4.0803,4.0762,4.076,4.0759,4.0751,0,0,4.0754,4.0753,0,0,0,0,0,0,0,0,4.0886,4.0883,4.0849,4.0848,4.0846,4.0818,4.0827,4.0799,4.0803,4.0819,4.0803,4.0802,4.078,4.0777,4.077,4.0749,4.0747,4.0754,4.0753,4.0752,4.0752,0,0,0,0,0,0,0,4.0888,4.0884,4.0847,4.0849,4.0846,4.084,4.0836,4.0821,4.08,4.0817,4.0816,4.0812,4.0779,4.0771,4.0769,4.0746,4.0754,4.0752,4.0751,4.0751,4.0717,4.0717,0,0,0,0,0,0,4.0893,4.0886,4.0848,4.0846,4.0866,4.084,4.0835,4.0827,4.08,4.0796,4.0812,4.0811,4.0774,4.0771,4.0767,4.0756,4.0752,4.075,4.075,4.0717,4.0717,4.0717,0,0,0,0,0,0,4.0894,4.089,4.085,4.0866,4.086,4.0839,4.083,4.0826,4.0819,4.0796,4.0792,4.0808,4.0774,4.0769,4.0755,4.0755,4.075,4.0748,4.0717,4.0717,4.0717,4.0735,0,0,0,0,0,0,4.0896,4.089,4.0888,4.0866,4.0859,4.084,4.083,4.0826,4.0817,4.0815,4.0792,4.0788,4.0774,4.0758,4.0754,4.0752,4.0747,4.0717,4.0717,4.0717,4.0734,4.0735,4.0737,0,0,0,0,0,4.0898,4.0893,4.0888,4.0883,4.0856,4.084,4.0836,4.082,4.0817,4.0814,4.0799,4.0789,4.0755,4.0756,4.0752,4.075,4.0717,4.0717,4.0717,4.0734,4.0735,4.0737,0,0,0,0,0,0,4.0915,4.089,4.0884,4.0873,4.0859,4.0836,4.0832,4.0823,4.0808,4.0807,4.0788,4.0783,4.077,4.0758,4.076,4.0741,4.0735,4.0734,4.0749,4.0751,4.0752,4.0755,4.0746,0,0,0,0,0,4.0917,4.0907,4.0886,4.0878,4.0872,4.0853,4.0845,4.0835,4.0819,4.0812,4.0797,4.0781,4.0767,4.0758,4.0744,4.0732,4.0727,4.0729,4.073,4.0731,4.0731,4.0724,4.0725,4.0717,4.0717,4.0717,0,0,4.0922,4.0908,4.0902,4.0881,4.0869,4.0858,4.0848,4.0837,4.0828,4.081,4.0797,4.0784,4.0765,4.0753,4.0746,4.0742,4.0731,4.0731,4.0732,4.0731,4.0724,4.0725,4.0725,4.0717,4.0717,4.0717,0,0,4.0926,4.0914,4.0907,4.0895,4.0877,4.0865,4.0863,4.0842,4.0834,4.082,4.0807,4.0796,4.0772,4.0759,4.075,4.0749,4.0739,4.0745,4.0751,4.0745,4.0746,4.0746,4.0746,4.0747,4.0745,4.0745,4.0745,0,4.0934,4.0919,4.0904,4.0894,4.0885,4.0869,4.0861,4.085,4.0828,4.0822,4.0818,4.0789,4.0775,4.0759,4.0759,4.0752,4.0749,4.0748,4.0747,4.0747,4.0747,4.0747,4.0747,4.0746,4.0746,4.0745,4.0745,0,4.093,4.0919,4.0915,4.0896,4.0886,4.0877,4.086,4.0852,4.0842,4.083,4.0816,4.0799,4.0781,4.0777,4.0767,4.076,4.0758,4.0751,4.0744,4.0749,4.0749,4.0749,4.0747,4.0747,4.0746,4.0746,0,0,4.0943,4.0916,4.0915,4.0906,4.0886,4.0877,4.0867,4.0851,4.0844,4.083,4.0821,4.0801,4.0795,4.0784,4.0773,4.0767,4.0768,4.0761,4.076,4.0763,4.076,4.0765,4.0765,4.0762,4.0762,4.0761,4.0761,0,4.0943,4.0926,4.0913,4.09,4.089,4.0876,4.0867,4.0853,4.0842,4.0831,4.0817,4.0804,4.0797,4.079,4.0784,4.077,4.0767,4.0769,4.0752,4.0752,4.0758,4.0765,4.0771,4.0772,4.0761,4.0761,4.0761,0,4.0942,4.093,4.0917,4.0898,4.0893,4.0886,4.0871,4.086,4.0844,4.0836,4.0825,4.0813,4.0801,4.0796,4.0779,4.0781,4.0773,4.0765,4.0764,4.0762,4.0757,4.0763,4.0771,4.0772,4.076,4.076,4.0761,0,4.0953,4.0933,4.0923,4.0916,4.0894,4.0889,4.0879,4.0863,4.0855,4.0841,4.0835,4.0819,4.0811,4.0799,4.0783,4.0781,4.0768,4.0761,4.076,4.0761,4.0758,4.0759,4.0765,4.0753,4.0753,4.0753,4.0753,0,4.0956,4.0949,4.0928,4.0922,4.0913,4.0897,4.0889,4.0877,4.0863,4.0854,4.084,4.0831,4.0811,4.08,4.0787,4.0775,4.0771,4.0764,4.0761,4.0765,4.0766,4.076,4.0759,4.0753,4.0753,4.0753,4.0753,0,4.0967,4.0953,4.0941,4.0921,4.0916,4.0911,4.0894,4.0887,4.0875,4.0863,4.0859,4.084,4.0826,4.0809,4.0789,4.0781,4.077,4.0765,4.0776,4.0774,4.0775,4.0775,4.0778,4.0777,4.0765,4.0765,4.0766,0,4.097,4.0964,4.0944,4.0938,4.0929,4.0918,4.091,4.0894,4.0886,4.0867,4.0863,4.0848,4.0835,4.0813,4.0797,4.0782,4.0776,4.0778,4.0774,4.0779,4.0777,4.0777,4.0777,4.078,4.078,4.078,4.078,0,4.0976,4.0969,4.0959,4.0945,4.0936,4.0925,4.0913,4.0908,4.0889,4.088,4.0867,4.0857,4.0838,4.0823,4.0806,4.0795,4.0784,4.0782,4.0781,4.0785,4.0792,4.0789,4.078,4.0782,4.0782,4.0781,4.0781,4.0781,4.0983,4.0977,4.0963,4.0951,4.0941,4.093,4.0923,4.0911,4.0899,4.0883,4.0874,4.0861,4.0845,4.0821,4.081,4.0799,4.0795,4.0794,4.0793,4.0793,4.0795,4.0794,4.0796,4.0795,4.0795,4.0795,4.0795,0,4.0988,4.0979,4.0968,4.0953,4.0944,4.0936,4.0922,4.0915,4.0903,4.089,4.0878,4.0863,4.0849,4.0832,4.0816,4.0811,4.0805,4.0807,4.0807,4.0805,4.0799,4.0801,4.0812,4.0812,4.0812,4.0812,4.0812,4.0812,4.099,4.0981,4.0973,4.0958,4.0948,4.0936,4.0929,4.0918,4.0908,4.0891,4.088,4.087,4.0855,4.0838,4.0825,4.082,4.0815,4.0818,4.0812,4.0807,4.0805,4.0804,4.0806,4.0817,4.0817,4.0819,4.0819,4.0819]}]]